When you browse on this site, cookies collect data to enhance your experience and personalize the content and advertising you see.
Visit our Privacy Policy to learn more. By continuing to use the site, you agree to this use of cookies and data.
  • In Österreich
  • Länderverzeichnis
  • Für 7 Tage
  • Wassertemperatur
  • Wetterkarte
  • News
  • Widgets
  • user-avatar
    Anmelden

    Stündliche Wetter Salyan

    Heute, 5 Juni, Freitag

    Zeit Temperatur Niederschläge Wind Luftdruck Luftfeuchtigkeit
    00:00 +20°C° 0 mm 2 m/S 759 mmHg 74%
    01:00 +21°C° 0 mm 1 m/S 758 mmHg 75%
    02:00 +20°C° 0 mm 1 m/S 758 mmHg 77%
    03:00 +20°C° 0 mm 1 m/S 758 mmHg 79%
    04:00 +21°C° 0 mm 1 m/S 759 mmHg 75%
    05:00 +20°C° 0 mm 2 m/S 759 mmHg 71%
    06:00 +21°C° 0 mm 2 m/S 760 mmHg 67%
    07:00 +24°C° 0 mm 3 m/S 760 mmHg 58%
    08:00 +26°C° 0 mm 3 m/S 760 mmHg 50%
    09:00 +29°C° 0 mm 4 m/S 761 mmHg 41%
    10:00 +30°C° 0 mm 3 m/S 761 mmHg 38%
    11:00 +31°C° 0 mm 3 m/S 761 mmHg 35%
    12:00 +33°C° 0 mm 3 m/S 761 mmHg 32%
    13:00 +33°C° 0 mm 5 m/S 760 mmHg 33%
    14:00 +32°C° 0 mm 7 m/S 760 mmHg 34%
    15:00 +32°C° 0 mm 8 m/S 760 mmHg 35%
    16:00 +31°C° 0 mm 8 m/S 760 mmHg 38%
    17:00 +29°C° 0 mm 8 m/S 761 mmHg 41%
    18:00 +27°C° 0 mm 8 m/S 761 mmHg 43%
    19:00 +26°C° 0 mm 7 m/S 762 mmHg 48%
    20:00 +24°C° 0 mm 6 m/S 762 mmHg 52%
    21:00 +23°C° 0 mm 5 m/S 763 mmHg 56%
    22:00 +23°C° 0 mm 5 m/S 763 mmHg 57%
    23:00 +23°C° 0 mm 5 m/S 763 mmHg 57%

    Morgen, 6 Juni, Samstag

    Zeit Temperatur Niederschläge Wind Luftdruck Luftfeuchtigkeit
    00:00 +22°C° 0 mm 6 m/S 764 mmHg 58%
    01:00 +22°C° 0 mm 5 m/S 764 mmHg 58%
    02:00 +22°C° 0 mm 4 m/S 764 mmHg 59%
    03:00 +21°C° 0 mm 3 m/S 764 mmHg 60%
    04:00 +22°C° 0 mm 3 m/S 764 mmHg 58%
    05:00 +24°C° 0 mm 3 m/S 764 mmHg 56%
    06:00 +24°C° 0 mm 3 m/S 765 mmHg 53%
    07:00 +26°C° 0 mm 3 m/S 765 mmHg 49%
    08:00 +27°C° 0 mm 2 m/S 765 mmHg 45%
    09:00 +28°C° 0 mm 2 m/S 765 mmHg 41%
    10:00 +29°C° 0 mm 2 m/S 765 mmHg 39%
    11:00 +30°C° 0 mm 3 m/S 765 mmHg 36%
    12:00 +32°C° 0 mm 4 m/S 764 mmHg 34%
    13:00 +32°C° 0 mm 5 m/S 764 mmHg 34%
    14:00 +32°C° 0 mm 6 m/S 764 mmHg 34%
    15:00 +32°C° 0 mm 7 m/S 764 mmHg 34%
    16:00 +30°C° 0.1 mm 7 m/S 764 mmHg 36%
    17:00 +29°C° 0.1 mm 6 m/S 764 mmHg 38%
    18:00 +28°C° 0.1 mm 6 m/S 764 mmHg 40%
    19:00 +27°C° 0.2 mm 5 m/S 764 mmHg 45%
    20:00 +26°C° 0.2 mm 3 m/S 764 mmHg 49%
    21:00 +25°C° 0.2 mm 2 m/S 764 mmHg 54%
    22:00 +24°C° 0.1 mm 2 m/S 764 mmHg 56%
    23:00 +24°C° 0.1 mm 2 m/S 764 mmHg 58%

    übermorgen, 7 Juni, Sonntag

    Zeit Temperatur Niederschläge Wind Luftdruck Luftfeuchtigkeit
    00:00 +22°C° 0.1 mm 3 m/S 764 mmHg 60%
    01:00 +23°C° 0 mm 2 m/S 764 mmHg 60%
    02:00 +21°C° 0 mm 2 m/S 764 mmHg 61%
    03:00 +21°C° 0 mm 2 m/S 764 mmHg 62%
    04:00 +23°C° 0 mm 2 m/S 764 mmHg 59%
    05:00 +23°C° 0 mm 2 m/S 764 mmHg 57%
    06:00 +24°C° 0 mm 2 m/S 764 mmHg 54%
    07:00 +26°C° 0 mm 1 m/S 764 mmHg 50%
    08:00 +27°C° 0 mm 1 m/S 764 mmHg 45%
    09:00 +29°C° 0 mm 1 m/S 764 mmHg 41%
    10:00 +30°C° 0 mm 2 m/S 764 mmHg 39%
    11:00 +31°C° 0 mm 2 m/S 763 mmHg 36%
    12:00 +32°C° 0 mm 2 m/S 763 mmHg 34%
    13:00 +33°C° 0 mm 3 m/S 763 mmHg 34%
    14:00 +33°C° 0 mm 4 m/S 762 mmHg 33%
    15:00 +33°C° 0 mm 5 m/S 762 mmHg 32%
    16:00 +32°C° 0 mm 6 m/S 762 mmHg 36%
    17:00 +30°C° 0 mm 6 m/S 762 mmHg 39%
    18:00 +28°C° 0 mm 6 m/S 762 mmHg 43%
    19:00 +27°C° 0 mm 5 m/S 762 mmHg 47%
    20:00 +26°C° 0 mm 4 m/S 762 mmHg 52%
    21:00 +24°C° 0 mm 3 m/S 762 mmHg 56%
    22:00 +24°C° 0 mm 3 m/S 762 mmHg 59%
    23:00 +24°C° 0 mm 3 m/S 762 mmHg 62%

    8 Juni, Montag

    Zeit Temperatur Niederschläge Wind Luftdruck Luftfeuchtigkeit
    00:00 +22°C° 0 mm 3 m/S 761 mmHg 65%
    01:00 +22°C° 0 mm 3 m/S 761 mmHg 67%
    02:00 +23°C° 0 mm 2 m/S 761 mmHg 70%
    03:00 +21°C° 0 mm 2 m/S 761 mmHg 72%
    04:00 +22°C° 0 mm 3 m/S 761 mmHg 69%
    05:00 +24°C° 0 mm 3 m/S 761 mmHg 65%
    06:00 +24°C° 0 mm 3 m/S 761 mmHg 62%
    07:00 +26°C° 0 mm 3 m/S 761 mmHg 53%
    08:00 +29°C° 0 mm 3 m/S 761 mmHg 43%
    09:00 +32°C° 0 mm 4 m/S 761 mmHg 34%
    10:00 +33°C° 0 mm 4 m/S 760 mmHg 31%
    11:00 +33°C° 0 mm 5 m/S 760 mmHg 29%
    12:00 +34°C° 0 mm 6 m/S 760 mmHg 27%
    13:00 +34°C° 0 mm 6 m/S 759 mmHg 27%
    14:00 +34°C° 0 mm 6 m/S 759 mmHg 27%
    15:00 +34°C° 0 mm 6 m/S 759 mmHg 27%
    16:00 +33°C° 0 mm 6 m/S 759 mmHg 30%
    17:00 +30°C° 0 mm 6 m/S 759 mmHg 33%
    18:00 +29°C° 0 mm 6 m/S 759 mmHg 36%
    19:00 +28°C° 0 mm 5 m/S 759 mmHg 42%
    20:00 +26°C° 0 mm 5 m/S 759 mmHg 48%
    21:00 +25°C° 0 mm 4 m/S 759 mmHg 54%
    22:00 +23°C° 0 mm 4 m/S 759 mmHg 58%
    23:00 +24°C° 0 mm 3 m/S 759 mmHg 61%

    9 Juni, Dienstag

    Zeit Temperatur Niederschläge Wind Luftdruck Luftfeuchtigkeit
    00:00 +22°C° 0 mm 3 m/S 759 mmHg 65%
    01:00 +22°C° 0 mm 3 m/S 759 mmHg 66%
    02:00 +23°C° 0 mm 2 m/S 759 mmHg 68%
    03:00 +21°C° 0 mm 2 m/S 759 mmHg 69%
    04:00 +23°C° 0 mm 2 m/S 759 mmHg 66%
    05:00 +24°C° 0 mm 2 m/S 759 mmHg 63%
    06:00 +25°C° 0 mm 2 m/S 760 mmHg 60%
    07:00 +27°C° 0 mm 3 m/S 760 mmHg 52%
    08:00 +29°C° 0 mm 4 m/S 760 mmHg 43%
    09:00 +32°C° 0 mm 4 m/S 760 mmHg 35%
    10:00 +33°C° 0 mm 4 m/S 760 mmHg 31%
    11:00 +34°C° 0 mm 5 m/S 760 mmHg 27%
    12:00 +35°C° 0 mm 5 m/S 760 mmHg 23%
    13:00 +35°C° 0 mm 5 m/S 759 mmHg 24%
    14:00 +34°C° 0 mm 6 m/S 759 mmHg 24%
    15:00 +34°C° 0 mm 6 m/S 759 mmHg 25%
    16:00 +33°C° 0 mm 5 m/S 758 mmHg 26%
    17:00 +32°C° 0 mm 4 m/S 758 mmHg 28%
    18:00 +30°C° 0 mm 4 m/S 758 mmHg 30%
    19:00 +29°C° 0 mm 3 m/S 758 mmHg 33%
    20:00 +27°C° 0 mm 3 m/S 758 mmHg 36%
    21:00 +26°C° 0 mm 3 m/S 759 mmHg 39%
    22:00 +25°C° 0 mm 3 m/S 759 mmHg 39%
    23:00 +25°C° 0 mm 3 m/S 759 mmHg 40%

    10 Juni, Mittwoch

    Zeit Temperatur Niederschläge Wind Luftdruck Luftfeuchtigkeit
    00:00 +25°C° 0 mm 2 m/S 759 mmHg 41%
    01:00 +24°C° 0 mm 2 m/S 759 mmHg 43%
    02:00 +23°C° 0 mm 1 m/S 759 mmHg 46%
    03:00 +23°C° 0 mm 1 m/S 759 mmHg 48%
    04:00 +24°C° 0.2 mm 1 m/S 759 mmHg 47%
    05:00 +24°C° 0.2 mm 1 m/S 759 mmHg 47%
    06:00 +25°C° 0.2 mm 1 m/S 759 mmHg 46%
    07:00 +27°C° 0.1 mm 1 m/S 760 mmHg 42%
    08:00 +29°C° 0.1 mm 2 m/S 760 mmHg 37%
    09:00 +31°C° 0.1 mm 2 m/S 760 mmHg 32%
    10:00 +32°C° 0.1 mm 2 m/S 760 mmHg 29%
    11:00 +35°C° 0.1 mm 2 m/S 760 mmHg 25%
    12:00 +35°C° 0.1 mm 1 m/S 760 mmHg 22%
    13:00 +37°C° 0.1 mm 3 m/S 759 mmHg 21%
    14:00 +37°C° 0.1 mm 4 m/S 759 mmHg 19%
    15:00 +39°C° 0.1 mm 6 m/S 759 mmHg 18%
    16:00 +36°C° 0 mm 5 m/S 759 mmHg 20%
    17:00 +35°C° 0 mm 5 m/S 759 mmHg 21%
    18:00 +34°C° 0 mm 4 m/S 759 mmHg 23%
    19:00 +31°C° 0 mm 3 m/S 759 mmHg 29%
    20:00 +29°C° 0 mm 3 m/S 759 mmHg 34%
    21:00 +27°C° 0 mm 2 m/S 760 mmHg 40%
    22:00 +26°C° 0 mm 2 m/S 759 mmHg 40%
    23:00 +26°C° 0 mm 2 m/S 759 mmHg 40%
    Mehr zeigen